Year,Month,Day,Hour,Minute,Value (Times are PST for temperature in C)
2020,01,30,00,00,22.20
2020,01,30,00,01,22.30
2020,01,30,00,02,22.30
2020,01,30,00,03,22.30
2020,01,30,00,04,22.30
2020,01,30,00,05,22.30
2020,01,30,00,06,22.30
2020,01,30,00,07,22.30
2020,01,30,00,08,22.20
2020,01,30,00,09,22.20
2020,01,30,00,10,22.20
2020,01,30,00,11,22.10
2020,01,30,00,12,22.10
2020,01,30,00,13,22.00
2020,01,30,00,14,22.00
2020,01,30,00,15,22.00
2020,01,30,00,16,22.00
2020,01,30,00,17,22.00
2020,01,30,00,18,22.00
2020,01,30,00,19,22.10
2020,01,30,00,20,22.10
2020,01,30,00,21,22.10
2020,01,30,00,22,22.10
2020,01,30,00,23,22.10
2020,01,30,00,24,22.00
2020,01,30,00,25,22.00
2020,01,30,00,26,22.00
2020,01,30,00,27,22.00
2020,01,30,00,28,22.00
2020,01,30,00,29,22.10
2020,01,30,00,30,22.10
2020,01,30,00,31,22.10
2020,01,30,00,32,22.20
2020,01,30,00,33,22.20
2020,01,30,00,34,22.20
2020,01,30,00,35,22.20
2020,01,30,00,36,22.20
2020,01,30,00,37,22.20
2020,01,30,00,38,22.20
2020,01,30,00,39,22.20
2020,01,30,00,40,22.20
2020,01,30,00,41,22.20
2020,01,30,00,42,22.10
2020,01,30,00,43,22.20
2020,01,30,00,44,22.10
2020,01,30,00,45,22.10
2020,01,30,00,46,22.10
2020,01,30,00,47,22.10
2020,01,30,00,48,22.10
2020,01,30,00,49,22.20
2020,01,30,00,50,22.20
2020,01,30,00,51,22.20
2020,01,30,00,52,22.20
2020,01,30,00,53,22.20
2020,01,30,00,54,22.20
2020,01,30,00,55,22.20
2020,01,30,00,56,22.20
2020,01,30,00,57,22.10
2020,01,30,00,58,22.10
2020,01,30,00,59,22.10
2020,01,30,01,00,22.10
2020,01,30,01,01,22.00
2020,01,30,01,02,22.00
2020,01,30,01,03,22.00
2020,01,30,01,04,21.90
2020,01,30,01,05,21.90
2020,01,30,01,06,21.80
2020,01,30,01,07,21.80
2020,01,30,01,08,21.70
2020,01,30,01,09,21.70
2020,01,30,01,10,21.70
2020,01,30,01,11,21.70
2020,01,30,01,12,21.70
2020,01,30,01,13,21.70
2020,01,30,01,14,21.70
2020,01,30,01,15,21.70
2020,01,30,01,16,21.70
2020,01,30,01,17,21.80
2020,01,30,01,18,21.80
2020,01,30,01,19,21.80
2020,01,30,01,20,21.80
2020,01,30,01,21,21.80
2020,01,30,01,22,21.80
2020,01,30,01,23,21.80
2020,01,30,01,24,21.80
2020,01,30,01,25,21.80
2020,01,30,01,26,21.80
2020,01,30,01,27,21.80
2020,01,30,01,28,21.80
2020,01,30,01,29,21.80
2020,01,30,01,30,21.80
2020,01,30,01,31,21.80
2020,01,30,01,32,21.80
2020,01,30,01,33,21.80
2020,01,30,01,34,21.80
2020,01,30,01,35,21.80
2020,01,30,01,36,21.80
2020,01,30,01,37,21.80
2020,01,30,01,38,21.80
2020,01,30,01,39,21.80
2020,01,30,01,40,21.80
2020,01,30,01,41,21.80
2020,01,30,01,42,21.80
2020,01,30,01,43,21.80
2020,01,30,01,44,21.80
2020,01,30,01,45,21.80
2020,01,30,01,46,21.80
2020,01,30,01,47,21.70
2020,01,30,01,48,21.70
2020,01,30,01,49,21.70
2020,01,30,01,50,21.70
2020,01,30,01,51,21.70
2020,01,30,01,52,21.70
2020,01,30,01,53,21.70
2020,01,30,01,54,21.70
2020,01,30,01,55,21.70
2020,01,30,01,56,21.70
2020,01,30,01,57,21.70
2020,01,30,01,58,21.70
2020,01,30,01,59,21.70
2020,01,30,02,00,21.80
2020,01,30,02,01,21.80
2020,01,30,02,02,21.80
2020,01,30,02,03,21.80
2020,01,30,02,04,21.80
2020,01,30,02,05,21.90
2020,01,30,02,06,21.90
2020,01,30,02,07,21.90
2020,01,30,02,08,21.90
2020,01,30,02,09,21.90
2020,01,30,02,10,21.90
2020,01,30,02,11,21.90
2020,01,30,02,12,21.90
2020,01,30,02,13,21.90
2020,01,30,02,14,21.90
2020,01,30,02,15,21.90
2020,01,30,02,16,21.90
2020,01,30,02,17,21.90
2020,01,30,02,18,21.90
2020,01,30,02,19,21.80
2020,01,30,02,20,21.80
2020,01,30,02,21,21.80
2020,01,30,02,22,21.80
2020,01,30,02,23,21.80
2020,01,30,02,24,21.80
2020,01,30,02,25,21.80
2020,01,30,02,26,21.80
2020,01,30,02,27,21.80
2020,01,30,02,28,21.80
2020,01,30,02,29,21.80
2020,01,30,02,30,21.80
2020,01,30,02,31,21.80
2020,01,30,02,32,21.80
2020,01,30,02,33,21.80
2020,01,30,02,34,21.80
2020,01,30,02,35,21.80
2020,01,30,02,36,21.80
2020,01,30,02,37,21.80
2020,01,30,02,38,21.80
2020,01,30,02,39,21.80
2020,01,30,02,40,21.80
2020,01,30,02,41,21.80
2020,01,30,02,42,21.80
2020,01,30,02,43,21.80
2020,01,30,02,44,21.80
2020,01,30,02,45,21.80
2020,01,30,02,46,21.80
2020,01,30,02,47,21.80
2020,01,30,02,48,21.80
2020,01,30,02,49,21.80
2020,01,30,02,50,21.70
2020,01,30,02,51,21.80
2020,01,30,02,52,21.80
2020,01,30,02,53,21.80
2020,01,30,02,54,21.80
2020,01,30,02,55,21.80
2020,01,30,02,56,21.80
2020,01,30,02,57,21.80
2020,01,30,02,58,21.80
2020,01,30,02,59,21.90
2020,01,30,03,00,21.90
2020,01,30,03,01,21.90
2020,01,30,03,02,21.90
2020,01,30,03,03,21.90
2020,01,30,03,04,21.90
2020,01,30,03,05,21.90
2020,01,30,03,06,21.90
2020,01,30,03,07,21.90
2020,01,30,03,08,22.00
2020,01,30,03,09,21.90
2020,01,30,03,10,22.00
2020,01,30,03,11,22.00
2020,01,30,03,12,21.90
2020,01,30,03,13,21.90
2020,01,30,03,14,21.90
2020,01,30,03,15,21.90
2020,01,30,03,16,21.90
2020,01,30,03,17,21.90
2020,01,30,03,18,21.90
2020,01,30,03,19,21.90
2020,01,30,03,20,21.90
2020,01,30,03,21,21.90
2020,01,30,03,22,21.90
2020,01,30,03,23,21.90
2020,01,30,03,24,21.90
2020,01,30,03,25,21.90
2020,01,30,03,26,22.00
2020,01,30,03,27,22.00
2020,01,30,03,28,22.00
2020,01,30,03,29,22.00
2020,01,30,03,30,22.00
2020,01,30,03,31,22.00
2020,01,30,03,32,22.00
2020,01,30,03,33,22.00
2020,01,30,03,34,22.00
2020,01,30,03,35,22.00
2020,01,30,03,36,22.00
2020,01,30,03,37,22.00
2020,01,30,03,38,22.00
2020,01,30,03,39,21.90
2020,01,30,03,40,21.90
2020,01,30,03,41,21.90
2020,01,30,03,42,21.90
2020,01,30,03,43,21.90
2020,01,30,03,44,21.90
2020,01,30,03,45,21.90
2020,01,30,03,46,21.90
2020,01,30,03,47,22.00
2020,01,30,03,48,22.00
2020,01,30,03,49,22.00
2020,01,30,03,50,22.10
2020,01,30,03,51,22.10
2020,01,30,03,52,22.10
2020,01,30,03,53,22.10
2020,01,30,03,54,22.10
2020,01,30,03,55,22.10
2020,01,30,03,56,22.20
2020,01,30,03,57,22.20
2020,01,30,03,58,22.20
2020,01,30,03,59,22.20
2020,01,30,04,00,22.20
2020,01,30,04,01,22.20
2020,01,30,04,02,22.20
2020,01,30,04,03,22.30
2020,01,30,04,04,22.30
2020,01,30,04,05,22.30
2020,01,30,04,06,22.30
2020,01,30,04,07,22.30
2020,01,30,04,08,22.30
2020,01,30,04,09,22.30
2020,01,30,04,10,22.30
2020,01,30,04,11,22.30
2020,01,30,04,12,22.30
2020,01,30,04,13,22.20
2020,01,30,04,14,22.20
2020,01,30,04,15,22.20
2020,01,30,04,16,22.20
2020,01,30,04,17,22.20
2020,01,30,04,18,22.20
2020,01,30,04,19,22.20
2020,01,30,04,20,22.20
2020,01,30,04,21,22.20
2020,01,30,04,22,22.20
2020,01,30,04,23,22.20
2020,01,30,04,24,22.20
2020,01,30,04,25,22.20
2020,01,30,04,26,22.20
2020,01,30,04,27,22.10
2020,01,30,04,28,22.10
2020,01,30,04,29,22.10
2020,01,30,04,30,22.10
2020,01,30,04,31,22.20
2020,01,30,04,32,22.10
2020,01,30,04,33,22.10
2020,01,30,04,34,22.10
2020,01,30,04,35,22.10
2020,01,30,04,36,22.10
2020,01,30,04,37,22.10
2020,01,30,04,38,22.10
2020,01,30,04,39,22.10
2020,01,30,04,40,22.10
2020,01,30,04,41,22.10
2020,01,30,04,42,22.20
2020,01,30,04,43,22.20
2020,01,30,04,44,22.20
2020,01,30,04,45,22.20
2020,01,30,04,46,22.20
2020,01,30,04,47,22.20
2020,01,30,04,48,22.20
2020,01,30,04,49,22.20
2020,01,30,04,50,22.30
2020,01,30,04,51,22.30
2020,01,30,04,52,22.30
2020,01,30,04,53,22.30
2020,01,30,04,54,22.30
2020,01,30,04,55,22.30
2020,01,30,04,56,22.30
2020,01,30,04,57,22.30
2020,01,30,04,58,22.20
2020,01,30,04,59,22.20
2020,01,30,05,00,22.20
2020,01,30,05,01,22.20
2020,01,30,05,02,22.20
2020,01,30,05,03,22.20
2020,01,30,05,04,22.20
2020,01,30,05,05,22.20
2020,01,30,05,06,22.30
2020,01,30,05,07,22.30
2020,01,30,05,08,22.40
2020,01,30,05,09,22.40
2020,01,30,05,10,22.40
2020,01,30,05,11,22.50
2020,01,30,05,12,22.50
2020,01,30,05,13,22.50
2020,01,30,05,14,22.50
2020,01,30,05,15,22.60
2020,01,30,05,16,22.60
2020,01,30,05,17,22.60
2020,01,30,05,18,22.60
2020,01,30,05,19,22.60
2020,01,30,05,20,22.60
2020,01,30,05,21,22.60
2020,01,30,05,22,22.60
2020,01,30,05,23,22.60
2020,01,30,05,24,22.60
2020,01,30,05,25,22.60
2020,01,30,05,26,22.60
2020,01,30,05,27,22.70
2020,01,30,05,28,22.70
2020,01,30,05,29,22.70
2020,01,30,05,30,22.60
2020,01,30,05,31,22.60
2020,01,30,05,32,22.60
2020,01,30,05,33,22.60
2020,01,30,05,34,22.60
2020,01,30,05,35,22.50
2020,01,30,05,36,22.60
2020,01,30,05,37,22.60
2020,01,30,05,38,22.60
2020,01,30,05,39,22.50
2020,01,30,05,40,22.50
2020,01,30,05,41,22.50
2020,01,30,05,42,22.50
2020,01,30,05,43,22.60
2020,01,30,05,44,22.60
2020,01,30,05,45,22.60
2020,01,30,05,46,22.60
2020,01,30,05,47,22.60
2020,01,30,05,48,22.60
2020,01,30,05,49,22.50
2020,01,30,05,50,22.50
2020,01,30,05,51,22.50
2020,01,30,05,52,22.60
2020,01,30,05,53,22.60
2020,01,30,05,54,22.60
2020,01,30,05,55,22.60
2020,01,30,05,56,22.60
2020,01,30,05,57,22.60
2020,01,30,05,58,22.60
2020,01,30,05,59,22.60
2020,01,30,06,00,22.60
2020,01,30,06,01,22.60
2020,01,30,06,02,22.70
2020,01,30,06,03,22.70
2020,01,30,06,04,22.70
2020,01,30,06,05,22.70
2020,01,30,06,06,22.70
2020,01,30,06,07,22.70
2020,01,30,06,08,22.60
2020,01,30,06,09,22.60
2020,01,30,06,10,22.60
2020,01,30,06,11,22.60
2020,01,30,06,12,22.60
2020,01,30,06,13,22.60
2020,01,30,06,14,22.60
2020,01,30,06,15,22.60
2020,01,30,06,16,22.60
2020,01,30,06,17,22.60
2020,01,30,06,18,22.60
2020,01,30,06,19,22.60
2020,01,30,06,20,22.60
2020,01,30,06,21,22.60
2020,01,30,06,22,22.60
2020,01,30,06,23,22.60
2020,01,30,06,24,22.70
2020,01,30,06,25,22.70
2020,01,30,06,26,22.70
2020,01,30,06,27,22.80
2020,01,30,06,28,22.80
2020,01,30,06,29,22.80
2020,01,30,06,30,22.80
2020,01,30,06,31,22.80
2020,01,30,06,32,22.80
2020,01,30,06,33,22.80
2020,01,30,06,34,22.80
2020,01,30,06,35,22.80
2020,01,30,06,36,22.80
2020,01,30,06,37,22.80
2020,01,30,06,38,22.80
2020,01,30,06,39,22.80
2020,01,30,06,40,22.80
2020,01,30,06,41,22.80
2020,01,30,06,42,22.80
2020,01,30,06,43,22.80
2020,01,30,06,44,22.80
2020,01,30,06,45,22.80
2020,01,30,06,46,22.80
2020,01,30,06,47,22.80
2020,01,30,06,48,22.90
2020,01,30,06,49,22.90
2020,01,30,06,50,22.90
2020,01,30,06,51,22.90
2020,01,30,06,52,22.90
2020,01,30,06,53,22.90
2020,01,30,06,54,22.90
2020,01,30,06,55,22.90
2020,01,30,06,56,22.80
2020,01,30,06,57,22.80
2020,01,30,06,58,22.80
2020,01,30,06,59,22.80
2020,01,30,07,00,22.80
2020,01,30,07,01,22.80
2020,01,30,07,02,22.80
2020,01,30,07,03,22.80
2020,01,30,07,04,22.70
2020,01,30,07,05,22.70
2020,01,30,07,06,22.70
2020,01,30,07,07,22.60
2020,01,30,07,08,22.60
2020,01,30,07,09,22.60
2020,01,30,07,10,22.50
2020,01,30,07,11,22.50
2020,01,30,07,12,22.60
2020,01,30,07,13,22.60
2020,01,30,07,14,22.70
2020,01,30,07,15,22.90
2020,01,30,07,16,23.00
2020,01,30,07,17,23.10
2020,01,30,07,18,23.20
2020,01,30,07,19,23.20
2020,01,30,07,20,23.20
2020,01,30,07,21,23.30
2020,01,30,07,22,23.30
2020,01,30,07,23,23.30
2020,01,30,07,24,23.30
2020,01,30,07,25,23.30
2020,01,30,07,26,23.20
2020,01,30,07,27,23.10
2020,01,30,07,28,23.00
2020,01,30,07,29,22.90
2020,01,30,07,30,22.80
2020,01,30,07,31,22.80
2020,01,30,07,32,22.70
2020,01,30,07,33,22.70
2020,01,30,07,34,22.70
2020,01,30,07,35,22.70
2020,01,30,07,36,22.70
2020,01,30,07,37,22.70
2020,01,30,07,38,22.70
2020,01,30,07,39,22.60
2020,01,30,07,40,22.60
2020,01,30,07,41,22.60
2020,01,30,07,42,22.60
2020,01,30,07,43,22.60
2020,01,30,07,44,22.60
2020,01,30,07,45,22.60
2020,01,30,07,46,22.60
2020,01,30,07,47,22.60
2020,01,30,07,48,22.60
2020,01,30,07,49,22.60
2020,01,30,07,50,22.70
2020,01,30,07,51,22.70
2020,01,30,07,52,22.70
2020,01,30,07,53,22.70
2020,01,30,07,54,22.70
2020,01,30,07,55,22.70
2020,01,30,07,56,22.70
2020,01,30,07,57,22.70
2020,01,30,07,58,22.60
2020,01,30,07,59,22.60
2020,01,30,08,00,22.60
2020,01,30,08,01,22.60
2020,01,30,08,02,22.60
2020,01,30,08,03,22.60
2020,01,30,08,04,22.70
2020,01,30,08,05,22.70
2020,01,30,08,06,22.80
2020,01,30,08,07,22.80
2020,01,30,08,08,22.80
2020,01,30,08,09,22.80
2020,01,30,08,10,22.80
2020,01,30,08,11,22.80
2020,01,30,08,12,22.90
2020,01,30,08,13,22.90
2020,01,30,08,14,22.90
2020,01,30,08,15,22.90
2020,01,30,08,16,22.90
2020,01,30,08,17,23.00
2020,01,30,08,18,23.00
2020,01,30,08,19,23.10
2020,01,30,08,20,23.20
2020,01,30,08,21,23.20
2020,01,30,08,22,23.30
2020,01,30,08,23,23.30
2020,01,30,08,24,23.30
2020,01,30,08,25,23.30
2020,01,30,08,26,23.40
2020,01,30,08,27,23.40
2020,01,30,08,28,23.30
2020,01,30,08,29,23.40
2020,01,30,08,30,23.40
2020,01,30,08,31,23.40
2020,01,30,08,32,23.40
2020,01,30,08,33,23.40
2020,01,30,08,34,23.40
2020,01,30,08,35,23.40
2020,01,30,08,36,23.40
2020,01,30,08,37,23.40
2020,01,30,08,38,23.40
2020,01,30,08,39,23.40
2020,01,30,08,40,23.40
2020,01,30,08,41,23.40
2020,01,30,08,42,23.50
2020,01,30,08,43,23.50
2020,01,30,08,44,23.50
2020,01,30,08,45,23.50
2020,01,30,08,46,23.60
2020,01,30,08,47,23.60
2020,01,30,08,48,23.60
2020,01,30,08,49,23.60
2020,01,30,08,50,23.60
2020,01,30,08,51,23.60
2020,01,30,08,52,23.60
2020,01,30,08,53,23.60
2020,01,30,08,54,23.60
2020,01,30,08,55,23.70
2020,01,30,08,56,23.60
2020,01,30,08,57,23.70
2020,01,30,08,58,23.70
2020,01,30,08,59,23.70
2020,01,30,09,00,23.70
2020,01,30,09,01,23.70
2020,01,30,09,02,23.70
2020,01,30,09,03,23.70
2020,01,30,09,04,23.70
2020,01,30,09,05,23.70
2020,01,30,09,06,23.70
2020,01,30,09,07,23.70
2020,01,30,09,08,23.70
2020,01,30,09,09,23.80
2020,01,30,09,10,23.80
2020,01,30,09,11,23.80
2020,01,30,09,12,23.80
2020,01,30,09,13,23.80
2020,01,30,09,14,23.80
2020,01,30,09,15,23.80
2020,01,30,09,16,23.80
2020,01,30,09,17,23.80
2020,01,30,09,18,23.80
2020,01,30,09,19,23.80
2020,01,30,09,20,23.80
2020,01,30,09,21,23.80
2020,01,30,09,22,23.90
2020,01,30,09,23,23.90
2020,01,30,09,24,23.90
2020,01,30,09,25,23.90
2020,01,30,09,26,24.00
2020,01,30,09,27,24.00
2020,01,30,09,28,24.00
2020,01,30,09,29,24.00
2020,01,30,09,30,24.00
2020,01,30,09,31,24.00
2020,01,30,09,32,24.10
2020,01,30,09,33,24.10
2020,01,30,09,34,24.10
2020,01,30,09,35,24.10
2020,01,30,09,36,24.10
2020,01,30,09,37,24.20
2020,01,30,09,38,24.20
2020,01,30,09,39,24.20
2020,01,30,09,40,24.20
2020,01,30,09,41,24.20
2020,01,30,09,42,24.20
2020,01,30,09,43,24.10
2020,01,30,09,44,24.10
2020,01,30,09,45,24.10
2020,01,30,09,46,24.10
2020,01,30,09,47,24.10
2020,01,30,09,48,24.10
2020,01,30,09,49,24.10
2020,01,30,09,50,24.20
2020,01,30,09,51,24.20
2020,01,30,09,52,24.20
2020,01,30,09,53,24.20
2020,01,30,09,54,24.30
2020,01,30,09,55,24.30
2020,01,30,09,56,24.30
2020,01,30,09,57,24.30
2020,01,30,09,58,24.30
2020,01,30,09,59,24.30
2020,01,30,10,00,24.30
2020,01,30,10,01,24.30
2020,01,30,10,02,24.20
2020,01,30,10,03,24.30
2020,01,30,10,04,24.20
2020,01,30,10,05,24.30
2020,01,30,10,06,24.50
2020,01,30,10,07,25.00
2020,01,30,10,08,25.60
2020,01,30,10,09,26.00
2020,01,30,10,10,26.20
2020,01,30,10,11,26.20
2020,01,30,10,12,26.20
2020,01,30,10,13,26.10
2020,01,30,10,14,26.10
2020,01,30,10,15,26.00
2020,01,30,10,16,25.90
2020,01,30,10,17,25.80
2020,01,30,10,18,25.70
2020,01,30,10,19,25.70
2020,01,30,10,20,25.60
2020,01,30,10,21,25.50
2020,01,30,10,22,25.50
2020,01,30,10,23,25.40
2020,01,30,10,24,25.30
2020,01,30,10,25,25.30
2020,01,30,10,26,25.30
2020,01,30,10,27,25.20
2020,01,30,10,28,25.20
2020,01,30,10,29,25.20
2020,01,30,10,30,25.30
2020,01,30,10,31,25.40
2020,01,30,10,32,25.50
2020,01,30,10,33,25.60
2020,01,30,10,34,25.60
2020,01,30,10,35,25.60
2020,01,30,10,36,25.70
2020,01,30,10,37,25.80
2020,01,30,10,38,25.90
2020,01,30,10,39,25.90
2020,01,30,10,40,26.00
2020,01,30,10,41,26.10
2020,01,30,10,42,26.20
2020,01,30,10,43,26.30
2020,01,30,10,44,26.30
2020,01,30,10,45,26.30
2020,01,30,10,46,26.40
2020,01,30,10,47,26.50
2020,01,30,10,48,26.60
2020,01,30,10,49,26.70
2020,01,30,10,50,26.80
2020,01,30,10,51,26.90
2020,01,30,10,52,27.00
2020,01,30,10,53,27.10
2020,01,30,10,54,27.20
2020,01,30,10,55,27.10
2020,01,30,10,56,27.10
2020,01,30,10,57,27.00
2020,01,30,10,58,27.00
2020,01,30,10,59,26.90
2020,01,30,11,00,26.70
2020,01,30,11,01,26.60
2020,01,30,11,02,26.50
2020,01,30,11,03,26.40
2020,01,30,11,04,26.30
2020,01,30,11,05,26.20
2020,01,30,11,06,26.00
2020,01,30,11,07,25.90
2020,01,30,11,08,25.80
2020,01,30,11,09,25.60
2020,01,30,11,10,25.50
2020,01,30,11,11,25.40
2020,01,30,11,12,25.40
2020,01,30,11,13,25.30
2020,01,30,11,14,25.30
2020,01,30,11,15,25.20
2020,01,30,11,16,25.10
2020,01,30,11,17,25.10
2020,01,30,11,18,25.20
2020,01,30,11,19,25.20
2020,01,30,11,20,25.20
2020,01,30,11,21,25.20
2020,01,30,11,22,25.30
2020,01,30,11,23,25.30
2020,01,30,11,24,25.30
2020,01,30,11,25,25.30
2020,01,30,11,26,25.30
2020,01,30,11,27,25.40
2020,01,30,11,28,25.40
2020,01,30,11,29,25.40
2020,01,30,11,30,25.40
2020,01,30,11,31,25.40
2020,01,30,11,32,25.30
2020,01,30,11,33,25.30
2020,01,30,11,34,25.30
2020,01,30,11,35,25.40
2020,01,30,11,36,25.40
2020,01,30,11,37,25.40
2020,01,30,11,38,25.40
2020,01,30,11,39,25.40
2020,01,30,11,40,25.40
2020,01,30,11,41,25.40
2020,01,30,11,42,25.40
2020,01,30,11,43,25.50
2020,01,30,11,44,25.50
2020,01,30,11,45,25.60
2020,01,30,11,46,25.60
2020,01,30,11,47,25.60
2020,01,30,11,48,25.70
2020,01,30,11,49,25.60
2020,01,30,11,50,25.70
2020,01,30,11,51,25.70
2020,01,30,11,52,25.70
2020,01,30,11,53,25.80
2020,01,30,11,54,25.80
2020,01,30,11,55,25.80
2020,01,30,11,56,25.80
2020,01,30,11,57,25.80
2020,01,30,11,58,25.80
2020,01,30,11,59,25.80
2020,01,30,12,00,25.80
2020,01,30,12,01,25.80
2020,01,30,12,02,25.80
2020,01,30,12,03,25.80
2020,01,30,12,04,25.80
2020,01,30,12,05,25.80
2020,01,30,12,06,25.80
2020,01,30,12,07,25.80
2020,01,30,12,08,25.80
2020,01,30,12,09,25.70
2020,01,30,12,10,25.70
2020,01,30,12,11,25.70
2020,01,30,12,12,25.80
2020,01,30,12,13,25.80
2020,01,30,12,14,25.80
2020,01,30,12,15,25.80
2020,01,30,12,16,25.80
2020,01,30,12,17,25.80
2020,01,30,12,18,25.70
2020,01,30,12,19,25.70
2020,01,30,12,20,25.60
2020,01,30,12,21,25.50
2020,01,30,12,22,25.40
2020,01,30,12,23,25.20
2020,01,30,12,24,25.10
2020,01,30,12,25,25.00
2020,01,30,12,26,25.00
2020,01,30,12,27,24.90
2020,01,30,12,28,24.90
2020,01,30,12,29,24.80
2020,01,30,12,30,24.80
2020,01,30,12,31,24.70
2020,01,30,12,32,24.60
2020,01,30,12,33,24.60
2020,01,30,12,34,24.60
2020,01,30,12,35,24.50
2020,01,30,12,36,24.50
2020,01,30,12,37,24.50
2020,01,30,12,38,24.40
2020,01,30,12,39,24.40
2020,01,30,12,40,24.40
2020,01,30,12,41,24.40
2020,01,30,12,42,24.40
2020,01,30,12,43,24.40
2020,01,30,12,44,24.40
2020,01,30,12,45,24.40
2020,01,30,12,46,24.50
2020,01,30,12,47,24.60
2020,01,30,12,48,24.70
2020,01,30,12,49,24.80
2020,01,30,12,50,24.90
2020,01,30,12,51,24.90
2020,01,30,12,52,24.90
2020,01,30,12,53,24.90
2020,01,30,12,54,24.80
2020,01,30,12,55,24.80
2020,01,30,12,56,24.80
2020,01,30,12,57,24.80
2020,01,30,12,58,24.70
2020,01,30,12,59,24.70
2020,01,30,13,00,24.70
2020,01,30,13,01,24.70
2020,01,30,13,02,24.70
2020,01,30,13,03,24.70
2020,01,30,13,04,24.90
2020,01,30,13,05,25.00
2020,01,30,13,06,25.20
2020,01,30,13,07,25.30
2020,01,30,13,08,25.50
2020,01,30,13,09,25.70
2020,01,30,13,10,25.80
2020,01,30,13,11,25.90
2020,01,30,13,12,26.00
2020,01,30,13,13,26.10
2020,01,30,13,14,26.10
2020,01,30,13,15,26.20
2020,01,30,13,16,26.20
2020,01,30,13,17,26.20
2020,01,30,13,18,26.20
2020,01,30,13,19,26.20
2020,01,30,13,20,26.20
2020,01,30,13,21,26.10
2020,01,30,13,22,26.10
2020,01,30,13,23,26.10
2020,01,30,13,24,26.10
2020,01,30,13,25,26.10
2020,01,30,13,26,26.10
2020,01,30,13,27,26.10
2020,01,30,13,28,26.10
2020,01,30,13,29,26.10
2020,01,30,13,30,26.10
2020,01,30,13,31,26.20
2020,01,30,13,32,26.20
2020,01,30,13,33,26.30
2020,01,30,13,34,26.30
2020,01,30,13,35,26.40
2020,01,30,13,36,26.30
2020,01,30,13,37,26.30
2020,01,30,13,38,26.20
2020,01,30,13,39,26.10
2020,01,30,13,40,26.00
2020,01,30,13,41,25.90
2020,01,30,13,42,25.80
2020,01,30,13,43,25.70
2020,01,30,13,44,25.60
2020,01,30,13,45,25.60
2020,01,30,13,46,25.50
2020,01,30,13,47,25.50
2020,01,30,13,48,25.50
2020,01,30,13,49,25.70
2020,01,30,13,50,25.80
2020,01,30,13,51,26.10
2020,01,30,13,52,26.30
2020,01,30,13,53,26.60
2020,01,30,13,54,26.80
2020,01,30,13,55,26.90
2020,01,30,13,56,26.90
2020,01,30,13,57,26.80
2020,01,30,13,58,26.80
2020,01,30,13,59,26.70
2020,01,30,14,00,26.70
2020,01,30,14,01,26.70
2020,01,30,14,02,26.70
2020,01,30,14,03,26.80
2020,01,30,14,04,26.90
2020,01,30,14,05,27.00
2020,01,30,14,06,27.00
2020,01,30,14,07,27.00
2020,01,30,14,08,26.90
2020,01,30,14,09,26.90
2020,01,30,14,10,26.90
2020,01,30,14,11,26.80
2020,01,30,14,12,26.70
2020,01,30,14,13,26.60
2020,01,30,14,14,26.50
2020,01,30,14,15,26.40
2020,01,30,14,16,26.40
2020,01,30,14,17,26.40
2020,01,30,14,18,26.30
2020,01,30,14,19,26.30
2020,01,30,14,20,26.30
2020,01,30,14,21,26.20
2020,01,30,14,22,26.30
2020,01,30,14,23,26.30
2020,01,30,14,24,26.30
2020,01,30,14,25,26.30
2020,01,30,14,26,26.20
2020,01,30,14,27,26.20
2020,01,30,14,28,26.30
2020,01,30,14,29,26.30
2020,01,30,14,30,26.20
2020,01,30,14,31,26.10
2020,01,30,14,32,26.10
2020,01,30,14,33,26.10
2020,01,30,14,34,26.10
2020,01,30,14,35,26.10
2020,01,30,14,36,26.10
2020,01,30,14,37,26.10
2020,01,30,14,38,26.10
2020,01,30,14,39,26.10
2020,01,30,14,40,26.10
2020,01,30,14,41,26.00
2020,01,30,14,42,26.00
2020,01,30,14,43,25.90
2020,01,30,14,44,25.90
2020,01,30,14,45,25.80
2020,01,30,14,46,25.80
2020,01,30,14,47,25.80
2020,01,30,14,48,25.70
2020,01,30,14,49,25.70
2020,01,30,14,50,25.60
2020,01,30,14,51,25.60
2020,01,30,14,52,25.60
2020,01,30,14,53,25.50
2020,01,30,14,54,25.50
2020,01,30,14,55,25.40
2020,01,30,14,56,25.40
2020,01,30,14,57,25.40
2020,01,30,14,58,25.40
2020,01,30,14,59,25.40
2020,01,30,15,00,25.30
2020,01,30,15,01,25.30
2020,01,30,15,02,25.30
2020,01,30,15,03,25.30
2020,01,30,15,04,25.30
2020,01,30,15,05,25.30
2020,01,30,15,06,25.30
2020,01,30,15,07,25.30
2020,01,30,15,08,25.30
2020,01,30,15,09,25.30
2020,01,30,15,10,25.30
2020,01,30,15,11,25.30
2020,01,30,15,12,25.30
2020,01,30,15,13,25.30
2020,01,30,15,14,25.30
2020,01,30,15,15,25.30
2020,01,30,15,16,25.30
2020,01,30,15,17,25.30
2020,01,30,15,18,25.30
2020,01,30,15,19,25.40
2020,01,30,15,20,25.40
2020,01,30,15,21,25.40
2020,01,30,15,22,25.40
2020,01,30,15,23,25.40
2020,01,30,15,24,25.40
2020,01,30,15,25,25.40
2020,01,30,15,26,25.40
2020,01,30,15,27,25.40
2020,01,30,15,28,25.40
2020,01,30,15,29,25.40
2020,01,30,15,30,25.40
2020,01,30,15,31,25.40
2020,01,30,15,32,25.40
2020,01,30,15,33,25.40
2020,01,30,15,34,25.40
2020,01,30,15,35,25.40
2020,01,30,15,36,25.40
2020,01,30,15,37,25.40
2020,01,30,15,38,25.40
2020,01,30,15,39,25.40
2020,01,30,15,40,25.40
2020,01,30,15,41,25.40
2020,01,30,15,42,25.40
2020,01,30,15,43,25.40
2020,01,30,15,44,25.40
2020,01,30,15,45,25.40
2020,01,30,15,46,25.40
2020,01,30,15,47,25.40
2020,01,30,15,48,25.40
2020,01,30,15,49,25.40
2020,01,30,15,50,25.30
2020,01,30,15,51,25.30
2020,01,30,15,52,25.30
2020,01,30,15,53,25.30
2020,01,30,15,54,25.30
2020,01,30,15,55,25.30
2020,01,30,15,56,25.30
2020,01,30,15,57,25.30
2020,01,30,15,58,25.30
2020,01,30,15,59,25.30
2020,01,30,16,00,25.30
2020,01,30,16,01,25.30
2020,01,30,16,02,25.30
2020,01,30,16,03,25.30
2020,01,30,16,04,25.30
2020,01,30,16,05,25.30
2020,01,30,16,06,25.30
2020,01,30,16,07,25.30
2020,01,30,16,08,25.30
2020,01,30,16,09,25.30
2020,01,30,16,10,25.30
2020,01,30,16,11,25.30
2020,01,30,16,12,25.30
2020,01,30,16,13,25.30
2020,01,30,16,14,25.30
2020,01,30,16,15,25.30
2020,01,30,16,16,25.40
2020,01,30,16,17,25.40
2020,01,30,16,18,25.40
2020,01,30,16,19,25.40
2020,01,30,16,20,25.40
2020,01,30,16,21,25.40
2020,01,30,16,22,25.40
2020,01,30,16,23,25.40
2020,01,30,16,24,25.40
2020,01,30,16,25,25.40
2020,01,30,16,26,25.40
2020,01,30,16,27,25.40
2020,01,30,16,28,25.40
2020,01,30,16,29,25.40
2020,01,30,16,30,25.40
2020,01,30,16,31,25.40
2020,01,30,16,32,25.40
2020,01,30,16,33,25.40
2020,01,30,16,34,25.40
2020,01,30,16,35,25.40
2020,01,30,16,36,25.40
2020,01,30,16,37,25.40
2020,01,30,16,38,25.40
2020,01,30,16,39,25.40
2020,01,30,16,40,25.40
2020,01,30,16,41,25.40
2020,01,30,16,42,25.40
2020,01,30,16,43,25.40
2020,01,30,16,44,25.40
2020,01,30,16,45,25.40
2020,01,30,16,46,25.40
2020,01,30,16,47,25.40
2020,01,30,16,48,25.40
2020,01,30,16,49,25.40
2020,01,30,16,50,25.40
2020,01,30,16,51,25.40
2020,01,30,16,52,25.40
2020,01,30,16,53,25.40
2020,01,30,16,54,25.40
2020,01,30,16,55,25.40
2020,01,30,16,56,25.40
2020,01,30,16,57,25.40
2020,01,30,16,58,25.40
2020,01,30,16,59,25.40
2020,01,30,17,00,25.40
2020,01,30,17,01,25.40
2020,01,30,17,02,25.40
2020,01,30,17,03,25.40
2020,01,30,17,04,25.40
2020,01,30,17,05,25.40
2020,01,30,17,06,25.40
2020,01,30,17,07,25.40
2020,01,30,17,08,25.40
2020,01,30,17,09,25.40
2020,01,30,17,10,25.40
2020,01,30,17,11,25.40
2020,01,30,17,12,25.40
2020,01,30,17,13,25.40
2020,01,30,17,14,25.40
2020,01,30,17,15,25.40
2020,01,30,17,16,25.40
2020,01,30,17,17,25.40
2020,01,30,17,18,25.40
2020,01,30,17,19,25.40